Location: Blanot
(47.1713°N, 4.2340°E)
Time: 10:51:36
(UTC+00:00)

Cosmos 1833 Rocket - Pass Details

Date: 14 July 2020
Orbit: 832 x 840 km, 71.0° (Epoch: 05 August)

Event Time Altitude Azimuth Distance (km) Brightness Sun altitude
Exits shadow 02:26:43 17° 227° (SW) 1,987 4.0 -12.6°
Maximum altitude 02:30:57 56° 302° (WNW) 985 3.0 -12.1°
Drops below altitude 10° 02:36:30 10° 21° (NNE) 2,455 6.4 -11.6°
Sets 02:39:00 0° 25° (NNE) 3,395 7.6 -11.3°
